sat.trackr.live / text

‹ back to catalog

HELLAS-SAT 4 & SGS-1

NORAD 44034 · 2019-007A

PAYLOAD ACTIVE UNKNOWN

§ Identity

Operator
Country
GRSA
Launch date
2019-02-05
Launch site
FRGUI
Launch vehicle
Mass (kg)
RCS (m²)

Purposes: comms

External: N2YO · Heavens-Above · Gunter

§ Orbital elements

Epoch: 2026-09-19T03:28:15.430656Z

Period
1,436.10 min
Inclination
0.0631°
Eccentricity
0.0006258
Mean motion
1.00271497 rev/d
Perigee alt
35,760.3 km
Apogee alt
35,813.1 km
Semi-major
42,164.8 km
B*
0.0000e+0
RAAN
130.8061°
Arg perigee
29.3270°
Mean anomaly
288.9994°
Rev number
2,831

§ Raw data

HELLAS-SAT 4 & SGS-11 44034U 19007A   26262.14462304  .00000148  00000+0  00000+0 0  99952 44034   0.0631 130.8061 0006258  29.3270 288.9994  1.00271497 28314

JSON: /api/v1/satellites/44034 · /tle

For live sub-satellite position, see the globe view (requires WebGL).

§ Visibility from observer

Set your observer location to see the next 7 days of passes ≥ 10°. The values pass through the URL so the page stays shareable.

No JS? Fill the form by hand. The geolocation button needs JavaScript.